Year,Month,Day,Hour,Minute,Value (Times are PST for temperature in C)
2020,07,26,00,00,15.60
2020,07,26,00,01,15.60
2020,07,26,00,02,15.60
2020,07,26,00,03,15.60
2020,07,26,00,04,15.60
2020,07,26,00,05,15.50
2020,07,26,00,06,15.50
2020,07,26,00,07,15.50
2020,07,26,00,08,15.50
2020,07,26,00,09,15.40
2020,07,26,00,10,15.40
2020,07,26,00,11,15.40
2020,07,26,00,12,15.40
2020,07,26,00,13,15.40
2020,07,26,00,14,15.40
2020,07,26,00,15,15.40
2020,07,26,00,16,15.40
2020,07,26,00,17,15.50
2020,07,26,00,18,15.50
2020,07,26,00,19,15.50
2020,07,26,00,20,15.50
2020,07,26,00,21,15.50
2020,07,26,00,22,15.50
2020,07,26,00,23,15.50
2020,07,26,00,24,15.50
2020,07,26,00,25,15.40
2020,07,26,00,26,15.50
2020,07,26,00,27,15.40
2020,07,26,00,28,15.50
2020,07,26,00,29,15.50
2020,07,26,00,30,15.50
2020,07,26,00,31,15.50
2020,07,26,00,32,15.50
2020,07,26,00,33,15.50
2020,07,26,00,34,15.50
2020,07,26,00,35,15.50
2020,07,26,00,36,15.50
2020,07,26,00,37,15.60
2020,07,26,00,38,15.60
2020,07,26,00,39,15.60
2020,07,26,00,40,15.60
2020,07,26,00,41,15.60
2020,07,26,00,42,15.60
2020,07,26,00,43,15.60
2020,07,26,00,44,15.60
2020,07,26,00,45,15.60
2020,07,26,00,46,15.70
2020,07,26,00,47,15.70
2020,07,26,00,48,15.70
2020,07,26,00,49,15.60
2020,07,26,00,50,15.60
2020,07,26,00,51,15.60
2020,07,26,00,52,15.60
2020,07,26,00,53,15.50
2020,07,26,00,54,15.50
2020,07,26,00,55,15.50
2020,07,26,00,56,15.40
2020,07,26,00,57,15.40
2020,07,26,00,58,15.40
2020,07,26,00,59,15.40
2020,07,26,01,00,15.40
2020,07,26,01,01,15.40
2020,07,26,01,02,15.40
2020,07,26,01,03,15.40
2020,07,26,01,04,15.40
2020,07,26,01,05,15.40
2020,07,26,01,06,15.40
2020,07,26,01,07,15.40
2020,07,26,01,08,15.40
2020,07,26,01,09,15.40
2020,07,26,01,10,15.40
2020,07,26,01,11,15.40
2020,07,26,01,12,15.40
2020,07,26,01,13,15.40
2020,07,26,01,14,15.40
2020,07,26,01,15,15.40
2020,07,26,01,16,15.40
2020,07,26,01,17,15.40
2020,07,26,01,18,15.40
2020,07,26,01,19,15.40
2020,07,26,01,20,15.40
2020,07,26,01,21,15.40
2020,07,26,01,22,15.40
2020,07,26,01,23,15.40
2020,07,26,01,24,15.50
2020,07,26,01,25,15.60
2020,07,26,01,26,15.60
2020,07,26,01,27,15.70
2020,07,26,01,28,15.70
2020,07,26,01,29,15.70
2020,07,26,01,30,15.70
2020,07,26,01,31,15.70
2020,07,26,01,32,15.70
2020,07,26,01,33,15.70
2020,07,26,01,34,15.70
2020,07,26,01,35,15.80
2020,07,26,01,36,15.80
2020,07,26,01,37,15.80
2020,07,26,01,38,15.80
2020,07,26,01,39,15.80
2020,07,26,01,40,15.90
2020,07,26,01,41,15.90
2020,07,26,01,42,15.90
2020,07,26,01,43,15.90
2020,07,26,01,44,15.90
2020,07,26,01,45,15.90
2020,07,26,01,46,15.90
2020,07,26,01,47,15.90
2020,07,26,01,48,15.90
2020,07,26,01,49,15.90
2020,07,26,01,50,15.90
2020,07,26,01,51,15.90
2020,07,26,01,52,15.80
2020,07,26,01,53,15.80
2020,07,26,01,54,15.80
2020,07,26,01,55,15.80
2020,07,26,01,56,15.80
2020,07,26,01,57,15.80
2020,07,26,01,58,15.80
2020,07,26,01,59,15.70
2020,07,26,02,00,15.70
2020,07,26,02,01,15.70
2020,07,26,02,02,15.70
2020,07,26,02,03,15.70
2020,07,26,02,04,15.70
2020,07,26,02,05,15.70
2020,07,26,02,06,15.70
2020,07,26,02,07,15.60
2020,07,26,02,08,15.60
2020,07,26,02,09,15.60
2020,07,26,02,10,15.50
2020,07,26,02,11,15.50
2020,07,26,02,12,15.50
2020,07,26,02,13,15.40
2020,07,26,02,14,15.40
2020,07,26,02,15,15.40
2020,07,26,02,16,15.40
2020,07,26,02,17,15.30
2020,07,26,02,18,15.30
2020,07,26,02,19,15.30
2020,07,26,02,20,15.30
2020,07,26,02,21,15.30
2020,07,26,02,22,15.20
2020,07,26,02,23,15.20
2020,07,26,02,24,15.20
2020,07,26,02,25,15.20
2020,07,26,02,26,15.20
2020,07,26,02,27,15.20
2020,07,26,02,28,15.20
2020,07,26,02,29,15.20
2020,07,26,02,30,15.10
2020,07,26,02,31,15.10
2020,07,26,02,32,15.10
2020,07,26,02,33,15.10
2020,07,26,02,34,15.10
2020,07,26,02,35,15.10
2020,07,26,02,36,15.10
2020,07,26,02,37,15.10
2020,07,26,02,38,15.00
2020,07,26,02,39,15.00
2020,07,26,02,40,15.00
2020,07,26,02,41,15.00
2020,07,26,02,42,14.90
2020,07,26,02,43,14.90
2020,07,26,02,44,14.90
2020,07,26,02,45,14.90
2020,07,26,02,46,14.90
2020,07,26,02,47,14.80
2020,07,26,02,48,14.80
2020,07,26,02,49,14.80
2020,07,26,02,50,14.80
2020,07,26,02,51,14.80
2020,07,26,02,52,14.80
2020,07,26,02,53,14.80
2020,07,26,02,54,14.80
2020,07,26,02,55,14.80
2020,07,26,02,56,14.80
2020,07,26,02,57,14.80
2020,07,26,02,58,14.80
2020,07,26,02,59,14.80
2020,07,26,03,00,14.80
2020,07,26,03,01,14.70
2020,07,26,03,02,14.70
2020,07,26,03,03,14.70
2020,07,26,03,04,14.70
2020,07,26,03,05,14.70
2020,07,26,03,06,14.70
2020,07,26,03,07,14.60
2020,07,26,03,08,14.60
2020,07,26,03,09,14.60
2020,07,26,03,10,14.60
2020,07,26,03,11,14.50
2020,07,26,03,12,14.50
2020,07,26,03,13,14.50
2020,07,26,03,14,14.40
2020,07,26,03,15,14.40
2020,07,26,03,16,14.40
2020,07,26,03,17,14.40
2020,07,26,03,18,14.40
2020,07,26,03,19,14.40
2020,07,26,03,20,14.40
2020,07,26,03,21,14.40
2020,07,26,03,22,14.50
2020,07,26,03,23,14.50
2020,07,26,03,24,14.50
2020,07,26,03,25,14.60
2020,07,26,03,26,14.50
2020,07,26,03,27,14.50
2020,07,26,03,28,14.60
2020,07,26,03,29,14.60
2020,07,26,03,30,14.60
2020,07,26,03,31,14.60
2020,07,26,03,32,14.60
2020,07,26,03,33,14.60
2020,07,26,03,34,14.60
2020,07,26,03,35,14.60
2020,07,26,03,36,14.60
2020,07,26,03,37,14.60
2020,07,26,03,38,14.60
2020,07,26,03,39,14.60
2020,07,26,03,40,14.60
2020,07,26,03,41,14.60
2020,07,26,03,42,14.60
2020,07,26,03,43,14.60
2020,07,26,03,44,14.60
2020,07,26,03,45,14.60
2020,07,26,03,46,14.60
2020,07,26,03,47,14.50
2020,07,26,03,48,14.50
2020,07,26,03,49,14.50
2020,07,26,03,50,14.50
2020,07,26,03,51,14.50
2020,07,26,03,52,14.50
2020,07,26,03,53,14.50
2020,07,26,03,54,14.50
2020,07,26,03,55,14.40
2020,07,26,03,56,14.40
2020,07,26,03,57,14.40
2020,07,26,03,58,14.40
2020,07,26,03,59,14.40
2020,07,26,04,00,14.40
2020,07,26,04,01,14.40
2020,07,26,04,02,14.40
2020,07,26,04,03,14.40
2020,07,26,04,04,14.40
2020,07,26,04,05,14.40
2020,07,26,04,06,14.40
2020,07,26,04,07,14.40
2020,07,26,04,08,14.40
2020,07,26,04,09,14.40
2020,07,26,04,10,14.40
2020,07,26,04,11,14.40
2020,07,26,04,12,14.40
2020,07,26,04,13,14.40
2020,07,26,04,14,14.40
2020,07,26,04,15,14.40
2020,07,26,04,16,14.40
2020,07,26,04,17,14.40
2020,07,26,04,18,14.40
2020,07,26,04,19,14.30
2020,07,26,04,20,14.30
2020,07,26,04,21,14.30
2020,07,26,04,22,14.30
2020,07,26,04,23,14.30
2020,07,26,04,24,14.30
2020,07,26,04,25,14.30
2020,07,26,04,26,14.30
2020,07,26,04,27,14.30
2020,07,26,04,28,14.30
2020,07,26,04,29,14.30
2020,07,26,04,30,14.30
2020,07,26,04,31,14.30
2020,07,26,04,32,14.30
2020,07,26,04,33,14.30
2020,07,26,04,34,14.30
2020,07,26,04,35,14.20
2020,07,26,04,36,14.20
2020,07,26,04,37,14.20
2020,07,26,04,38,14.20
2020,07,26,04,39,14.20
2020,07,26,04,40,14.20
2020,07,26,04,41,14.20
2020,07,26,04,42,14.20
2020,07,26,04,43,14.20
2020,07,26,04,44,14.20
2020,07,26,04,45,14.20
2020,07,26,04,46,14.20
2020,07,26,04,47,14.20
2020,07,26,04,48,14.20
2020,07,26,04,49,14.20
2020,07,26,04,50,14.20
2020,07,26,04,51,14.10
2020,07,26,04,52,14.10
2020,07,26,04,53,14.10
2020,07,26,04,54,14.10
2020,07,26,04,55,14.10
2020,07,26,04,56,14.10
2020,07,26,04,57,14.10
2020,07,26,04,58,14.10
2020,07,26,04,59,14.10
2020,07,26,05,00,14.10
2020,07,26,05,01,14.10
2020,07,26,05,02,14.10
2020,07,26,05,03,14.10
2020,07,26,05,04,14.00
2020,07,26,05,05,14.00
2020,07,26,05,06,14.00
2020,07,26,05,07,13.90
2020,07,26,05,08,13.90
2020,07,26,05,09,13.90
2020,07,26,05,10,13.90
2020,07,26,05,11,13.90
2020,07,26,05,12,13.90
2020,07,26,05,13,13.90
2020,07,26,05,14,13.90
2020,07,26,05,15,13.90
2020,07,26,05,16,13.90
2020,07,26,05,17,13.90
2020,07,26,05,18,13.90
2020,07,26,05,19,13.90
2020,07,26,05,20,13.90
2020,07,26,05,21,13.90
2020,07,26,05,22,13.80
2020,07,26,05,23,13.80
2020,07,26,05,24,13.80
2020,07,26,05,25,13.80
2020,07,26,05,26,13.70
2020,07,26,05,27,13.70
2020,07,26,05,28,13.70
2020,07,26,05,29,13.70
2020,07,26,05,30,13.70
2020,07,26,05,31,13.60
2020,07,26,05,32,13.60
2020,07,26,05,33,13.60
2020,07,26,05,34,13.60
2020,07,26,05,35,13.60
2020,07,26,05,36,13.60
2020,07,26,05,37,13.60
2020,07,26,05,38,13.60
2020,07,26,05,39,13.60
2020,07,26,05,40,13.50
2020,07,26,05,41,13.50
2020,07,26,05,42,13.50
2020,07,26,05,43,13.50
2020,07,26,05,44,13.50
2020,07,26,05,45,13.50
2020,07,26,05,46,13.50
2020,07,26,05,47,13.50
2020,07,26,05,48,13.50
2020,07,26,05,49,13.50
2020,07,26,05,50,13.50
2020,07,26,05,51,13.50
2020,07,26,05,52,13.50
2020,07,26,05,53,13.50
2020,07,26,05,54,13.50
2020,07,26,05,55,13.50
2020,07,26,05,56,13.50
2020,07,26,05,57,13.50
2020,07,26,05,58,13.50
2020,07,26,05,59,13.50
2020,07,26,06,00,13.50
2020,07,26,06,01,13.50
2020,07,26,06,02,13.50
2020,07,26,06,03,13.50
2020,07,26,06,04,13.50
2020,07,26,06,05,13.50
2020,07,26,06,06,13.50
2020,07,26,06,07,13.50
2020,07,26,06,08,13.50
2020,07,26,06,09,13.50
2020,07,26,06,10,13.50
2020,07,26,06,11,13.50
2020,07,26,06,12,13.50
2020,07,26,06,13,13.50
2020,07,26,06,14,13.50
2020,07,26,06,15,13.60
2020,07,26,06,16,13.60
2020,07,26,06,17,13.60
2020,07,26,06,18,13.60
2020,07,26,06,19,13.60
2020,07,26,06,20,13.70
2020,07,26,06,21,13.70
2020,07,26,06,22,13.70
2020,07,26,06,23,13.70
2020,07,26,06,24,13.80
2020,07,26,06,25,13.80
2020,07,26,06,26,13.80
2020,07,26,06,27,13.90
2020,07,26,06,28,13.90
2020,07,26,06,29,13.90
2020,07,26,06,30,13.90
2020,07,26,06,31,14.00
2020,07,26,06,32,14.00
2020,07,26,06,33,14.00
2020,07,26,06,34,14.10
2020,07,26,06,35,14.10
2020,07,26,06,36,14.10
2020,07,26,06,37,14.10
2020,07,26,06,38,14.20
2020,07,26,06,39,14.20
2020,07,26,06,40,14.20
2020,07,26,06,41,14.20
2020,07,26,06,42,14.30
2020,07,26,06,43,14.30
2020,07,26,06,44,14.40
2020,07,26,06,45,14.40
2020,07,26,06,46,14.40
2020,07,26,06,47,14.50
2020,07,26,06,48,14.50
2020,07,26,06,49,14.60
2020,07,26,06,50,14.70
2020,07,26,06,51,14.70
2020,07,26,06,52,14.90
2020,07,26,06,53,15.00
2020,07,26,06,54,15.10
2020,07,26,06,55,15.10
2020,07,26,06,56,15.20
2020,07,26,06,57,15.30
2020,07,26,06,58,15.30
2020,07,26,06,59,15.50
2020,07,26,07,00,15.50
2020,07,26,07,01,15.60
2020,07,26,07,02,15.70
2020,07,26,07,03,15.80
2020,07,26,07,04,15.90
2020,07,26,07,05,16.00
2020,07,26,07,06,16.10
2020,07,26,07,07,16.10
2020,07,26,07,08,16.20
2020,07,26,07,09,16.20
2020,07,26,07,10,16.40
2020,07,26,07,11,16.40
2020,07,26,07,12,16.50
2020,07,26,07,13,16.60
2020,07,26,07,14,16.60
2020,07,26,07,15,16.70
2020,07,26,07,16,16.70
2020,07,26,07,17,16.80
2020,07,26,07,18,16.90
2020,07,26,07,19,16.90
2020,07,26,07,20,17.00
2020,07,26,07,21,17.10
2020,07,26,07,22,17.10
2020,07,26,07,23,17.20
2020,07,26,07,24,17.20
2020,07,26,07,25,17.30
2020,07,26,07,26,17.30
2020,07,26,07,27,17.30
2020,07,26,07,28,17.40
2020,07,26,07,29,17.40
2020,07,26,07,30,17.50
2020,07,26,07,31,17.50
2020,07,26,07,32,17.60
2020,07,26,07,33,17.60
2020,07,26,07,34,17.60
2020,07,26,07,35,17.60
2020,07,26,07,36,17.70
2020,07,26,07,37,17.70
2020,07,26,07,38,17.70
2020,07,26,07,39,17.80
2020,07,26,07,40,17.80
2020,07,26,07,41,17.80
2020,07,26,07,42,17.90
2020,07,26,07,43,17.90
2020,07,26,07,44,17.90
2020,07,26,07,45,18.00
2020,07,26,07,46,18.00
2020,07,26,07,47,18.00
2020,07,26,07,48,18.00
2020,07,26,07,49,18.00
2020,07,26,07,50,18.10
2020,07,26,07,51,18.10
2020,07,26,07,52,18.10
2020,07,26,07,53,18.10
2020,07,26,07,54,18.10
2020,07,26,07,55,18.10
2020,07,26,07,56,18.10
2020,07,26,07,57,18.10
2020,07,26,07,58,18.10
2020,07,26,07,59,18.20
2020,07,26,08,00,18.20
2020,07,26,08,01,18.20
2020,07,26,08,02,18.20
2020,07,26,08,03,18.20
2020,07,26,08,04,18.20
2020,07,26,08,05,18.20
2020,07,26,08,06,18.20
2020,07,26,08,07,18.20
2020,07,26,08,08,18.20
2020,07,26,08,09,18.20
2020,07,26,08,10,18.20
2020,07,26,08,11,18.20
2020,07,26,08,12,18.30
2020,07,26,08,13,18.30
2020,07,26,08,14,18.30
2020,07,26,08,15,18.30
2020,07,26,08,16,18.30
2020,07,26,08,17,18.30
2020,07,26,08,18,18.30
2020,07,26,08,19,18.30
2020,07,26,08,20,18.30
2020,07,26,08,21,18.40
2020,07,26,08,22,18.40
2020,07,26,08,23,18.40
2020,07,26,08,24,18.40
2020,07,26,08,25,18.40
2020,07,26,08,26,18.40
2020,07,26,08,27,18.50
2020,07,26,08,28,18.50
2020,07,26,08,29,18.50
2020,07,26,08,30,18.50
2020,07,26,08,31,18.60
2020,07,26,08,32,18.60
2020,07,26,08,33,18.60
2020,07,26,08,34,18.70
2020,07,26,08,35,18.70
2020,07,26,08,36,18.80
2020,07,26,08,37,18.80
2020,07,26,08,38,18.90
2020,07,26,08,39,18.90
2020,07,26,08,40,19.00
2020,07,26,08,41,19.00
2020,07,26,08,42,19.10
2020,07,26,08,43,19.10
2020,07,26,08,44,19.10
2020,07,26,08,45,19.20
2020,07,26,08,46,19.20
2020,07,26,08,47,19.20
2020,07,26,08,48,19.10
2020,07,26,08,49,19.10
2020,07,26,08,50,19.10
2020,07,26,08,51,19.00
2020,07,26,08,52,19.00
2020,07,26,08,53,19.00
2020,07,26,08,54,19.00
2020,07,26,08,55,19.00
2020,07,26,08,56,19.00
2020,07,26,08,57,19.00
2020,07,26,08,58,19.00
2020,07,26,08,59,19.00
2020,07,26,09,00,19.00
2020,07,26,09,01,19.10
2020,07,26,09,02,19.10
2020,07,26,09,03,19.10
2020,07,26,09,04,19.10
2020,07,26,09,05,19.20
2020,07,26,09,06,19.20
2020,07,26,09,07,19.20
2020,07,26,09,08,19.20
2020,07,26,09,09,19.20
2020,07,26,09,10,19.30
2020,07,26,09,11,19.30
2020,07,26,09,12,19.30
2020,07,26,09,13,19.30
2020,07,26,09,14,19.40
2020,07,26,09,15,19.40
2020,07,26,09,16,19.40
2020,07,26,09,17,19.40
2020,07,26,09,18,19.50
2020,07,26,09,19,19.50
2020,07,26,09,20,19.60
2020,07,26,09,21,19.60
2020,07,26,09,22,19.70
2020,07,26,09,23,19.70
2020,07,26,09,24,19.80
2020,07,26,09,25,19.80
2020,07,26,09,26,19.80
2020,07,26,09,27,19.80
2020,07,26,09,28,19.80
2020,07,26,09,29,19.80
2020,07,26,09,30,19.90
2020,07,26,09,31,19.90
2020,07,26,09,32,20.00
2020,07,26,09,33,20.00
2020,07,26,09,34,20.10
2020,07,26,09,35,20.10
2020,07,26,09,36,20.10
2020,07,26,09,37,20.00
2020,07,26,09,38,19.90
2020,07,26,09,39,19.90
2020,07,26,09,40,19.90
2020,07,26,09,41,19.90
2020,07,26,09,42,19.90
2020,07,26,09,43,19.90
2020,07,26,09,44,19.90
2020,07,26,09,45,19.90
2020,07,26,09,46,19.90
2020,07,26,09,47,19.90
2020,07,26,09,48,19.90
2020,07,26,09,49,19.90
2020,07,26,09,50,19.90
2020,07,26,09,51,19.90
2020,07,26,09,52,19.90
2020,07,26,09,53,19.90
2020,07,26,09,54,19.90
2020,07,26,09,55,19.90
2020,07,26,09,56,19.90
2020,07,26,09,57,19.90
2020,07,26,09,58,19.90
2020,07,26,09,59,19.90
2020,07,26,10,00,19.90
2020,07,26,10,01,19.90
2020,07,26,10,02,20.00
2020,07,26,10,03,20.10
2020,07,26,10,04,20.20
2020,07,26,10,05,20.30
2020,07,26,10,06,20.30
2020,07,26,10,07,20.40
2020,07,26,10,08,20.40
2020,07,26,10,09,20.40
2020,07,26,10,10,20.40
2020,07,26,10,11,20.40
2020,07,26,10,12,20.40
2020,07,26,10,13,20.40
2020,07,26,10,14,20.30
2020,07,26,10,15,20.30
2020,07,26,10,16,20.20
2020,07,26,10,17,20.30
2020,07,26,10,18,20.30
2020,07,26,10,19,20.30
2020,07,26,10,20,20.40
2020,07,26,10,21,20.50
2020,07,26,10,22,20.60
2020,07,26,10,23,20.60
2020,07,26,10,24,20.60
2020,07,26,10,25,20.70
2020,07,26,10,26,20.70
2020,07,26,10,27,20.80
2020,07,26,10,28,20.80
2020,07,26,10,29,20.70
2020,07,26,10,30,20.70
2020,07,26,10,31,20.70
2020,07,26,10,32,20.70
2020,07,26,10,33,20.70
2020,07,26,10,34,20.60
2020,07,26,10,35,20.60
2020,07,26,10,36,20.60
2020,07,26,10,37,20.60
2020,07,26,10,38,20.60
2020,07,26,10,39,20.60
2020,07,26,10,40,20.60
2020,07,26,10,41,20.60
2020,07,26,10,42,20.70
2020,07,26,10,43,20.80
2020,07,26,10,44,20.80
2020,07,26,10,45,20.90
2020,07,26,10,46,21.00
2020,07,26,10,47,21.10
2020,07,26,10,48,21.20
2020,07,26,10,49,21.20
2020,07,26,10,50,21.20
2020,07,26,10,51,21.20
2020,07,26,10,52,21.20
2020,07,26,10,53,21.10
2020,07,26,10,54,21.20
2020,07,26,10,55,21.10
2020,07,26,10,56,21.10
2020,07,26,10,57,21.00
2020,07,26,10,58,21.00
2020,07,26,10,59,21.00
2020,07,26,11,00,21.00
2020,07,26,11,01,21.00
2020,07,26,11,02,21.10
2020,07,26,11,03,21.10
2020,07,26,11,04,21.10
2020,07,26,11,05,21.10
2020,07,26,11,06,21.10
2020,07,26,11,07,21.10
2020,07,26,11,08,21.10
2020,07,26,11,09,21.10
2020,07,26,11,10,21.10
2020,07,26,11,11,21.20
2020,07,26,11,12,21.30
2020,07,26,11,13,21.30
2020,07,26,11,14,21.30
2020,07,26,11,15,21.20
2020,07,26,11,16,21.20
2020,07,26,11,17,21.20
2020,07,26,11,18,21.10
2020,07,26,11,19,21.10
2020,07,26,11,20,21.00
2020,07,26,11,21,21.00
2020,07,26,11,22,21.10
2020,07,26,11,23,21.10
2020,07,26,11,24,21.10
2020,07,26,11,25,21.10
2020,07,26,11,26,21.10
2020,07,26,11,27,21.10
2020,07,26,11,28,21.10
2020,07,26,11,29,21.10
2020,07,26,11,30,21.10
2020,07,26,11,31,21.20
2020,07,26,11,32,21.20
2020,07,26,11,33,21.30
2020,07,26,11,34,21.30
2020,07,26,11,35,21.30
2020,07,26,11,36,21.30
2020,07,26,11,37,21.20
2020,07,26,11,38,21.20
2020,07,26,11,39,21.20
2020,07,26,11,40,21.20
2020,07,26,11,41,21.20
2020,07,26,11,42,21.20
2020,07,26,11,43,21.20
2020,07,26,11,44,21.30
2020,07,26,11,45,21.40
2020,07,26,11,46,21.50
2020,07,26,11,47,21.60
2020,07,26,11,48,21.70
2020,07,26,11,49,21.70
2020,07,26,11,50,21.70
2020,07,26,11,51,21.80
2020,07,26,11,52,21.80
2020,07,26,11,53,21.80
2020,07,26,11,54,21.80
2020,07,26,11,55,21.80
2020,07,26,11,56,21.80
2020,07,26,11,57,21.80
2020,07,26,11,58,21.80
2020,07,26,11,59,21.80
2020,07,26,12,00,21.80
2020,07,26,12,01,21.90
2020,07,26,12,02,21.90
2020,07,26,12,03,21.90
2020,07,26,12,04,21.90
2020,07,26,12,05,21.90
2020,07,26,12,06,21.90
2020,07,26,12,07,21.90
2020,07,26,12,08,21.90
2020,07,26,12,09,21.90
2020,07,26,12,10,22.00
2020,07,26,12,11,22.00
2020,07,26,12,12,22.00
2020,07,26,12,13,22.00
2020,07,26,12,14,22.10
2020,07,26,12,15,22.10
2020,07,26,12,16,22.00
2020,07,26,12,17,22.00
2020,07,26,12,18,21.90
2020,07,26,12,19,21.90
2020,07,26,12,20,21.90
2020,07,26,12,21,21.90
2020,07,26,12,22,21.90
2020,07,26,12,23,21.90
2020,07,26,12,24,21.90
2020,07,26,12,25,21.90
2020,07,26,12,26,21.80
2020,07,26,12,27,21.80
2020,07,26,12,28,21.60
2020,07,26,12,29,21.60
2020,07,26,12,30,21.60
2020,07,26,12,31,21.60
2020,07,26,12,32,21.70
2020,07,26,12,33,21.70
2020,07,26,12,34,21.70
2020,07,26,12,35,21.80
2020,07,26,12,36,21.80
2020,07,26,12,37,21.90
2020,07,26,12,38,21.90
2020,07,26,12,39,22.00
2020,07,26,12,40,22.10
2020,07,26,12,41,22.20
2020,07,26,12,42,22.20
2020,07,26,12,43,22.30
2020,07,26,12,44,22.30
2020,07,26,12,45,22.30
2020,07,26,12,46,22.40
2020,07,26,12,47,22.40
2020,07,26,12,48,22.30
2020,07,26,12,49,22.40
2020,07,26,12,50,22.40
2020,07,26,12,51,22.40
2020,07,26,12,52,22.30
2020,07,26,12,53,22.30
2020,07,26,12,54,22.30
2020,07,26,12,55,22.30
2020,07,26,12,56,22.30
2020,07,26,12,57,22.30
2020,07,26,12,58,22.20
2020,07,26,12,59,22.20
2020,07,26,13,00,22.20
2020,07,26,13,01,22.30
2020,07,26,13,02,22.20
2020,07,26,13,03,22.20
2020,07,26,13,04,22.10
2020,07,26,13,05,22.10
2020,07,26,13,06,22.00
2020,07,26,13,07,22.00
2020,07,26,13,08,22.10
2020,07,26,13,09,22.10
2020,07,26,13,10,22.20
2020,07,26,13,11,22.20
2020,07,26,13,12,22.20
2020,07,26,13,13,22.20
2020,07,26,13,14,22.20
2020,07,26,13,15,22.20
2020,07,26,13,16,22.20
2020,07,26,13,17,22.30
2020,07,26,13,18,22.40
2020,07,26,13,19,22.40
2020,07,26,13,20,22.40
2020,07,26,13,21,22.50
2020,07,26,13,22,22.50
2020,07,26,13,23,22.60
2020,07,26,13,24,22.60
2020,07,26,13,25,22.60
2020,07,26,13,26,22.50
2020,07,26,13,27,22.50
2020,07,26,13,28,22.50
2020,07,26,13,29,22.50
2020,07,26,13,30,22.40
2020,07,26,13,31,22.30
2020,07,26,13,32,22.30
2020,07,26,13,33,22.30
2020,07,26,13,34,22.30
2020,07,26,13,35,22.30
2020,07,26,13,36,22.30
2020,07,26,13,37,22.30
2020,07,26,13,38,22.30
2020,07,26,13,39,22.40
2020,07,26,13,40,22.40
2020,07,26,13,41,22.50
2020,07,26,13,42,22.50
2020,07,26,13,43,22.60
2020,07,26,13,44,22.60
2020,07,26,13,45,22.60
2020,07,26,13,46,22.60
2020,07,26,13,47,22.50
2020,07,26,13,48,22.40
2020,07,26,13,49,22.40
2020,07,26,13,50,22.40
2020,07,26,13,51,22.40
2020,07,26,13,52,22.50
2020,07,26,13,53,22.50
2020,07,26,13,54,22.60
2020,07,26,13,55,22.60
2020,07,26,13,56,22.70
2020,07,26,13,57,22.70
2020,07,26,13,58,22.70
2020,07,26,13,59,22.70
2020,07,26,14,00,22.70
2020,07,26,14,01,22.70
2020,07,26,14,02,22.70
2020,07,26,14,03,22.70
2020,07,26,14,04,22.70
2020,07,26,14,05,22.70
2020,07,26,14,06,22.80
2020,07,26,14,07,22.90
2020,07,26,14,08,23.00
2020,07,26,14,09,23.10
2020,07,26,14,10,23.10
2020,07,26,14,11,23.20
2020,07,26,14,12,23.20
2020,07,26,14,13,23.30
2020,07,26,14,14,23.30
2020,07,26,14,15,23.40
2020,07,26,14,16,23.50
2020,07,26,14,17,23.60
2020,07,26,14,18,23.60
2020,07,26,14,19,23.60
2020,07,26,14,20,23.60
2020,07,26,14,21,23.50
2020,07,26,14,22,23.50
2020,07,26,14,23,23.50
2020,07,26,14,24,23.50
2020,07,26,14,25,23.50
2020,07,26,14,26,23.50
2020,07,26,14,27,23.30
2020,07,26,14,28,23.30
2020,07,26,14,29,23.20
2020,07,26,14,30,23.20
2020,07,26,14,31,23.20
2020,07,26,14,32,23.20
2020,07,26,14,33,23.20
2020,07,26,14,34,23.20
2020,07,26,14,35,23.20
2020,07,26,14,36,23.20
2020,07,26,14,37,23.20
2020,07,26,14,38,23.30
2020,07,26,14,39,23.40
2020,07,26,14,40,23.40
2020,07,26,14,41,23.40
2020,07,26,14,42,23.60
2020,07,26,14,43,23.70
2020,07,26,14,44,23.70
2020,07,26,14,45,23.80
2020,07,26,14,46,23.80
2020,07,26,14,47,23.90
2020,07,26,14,48,23.90
2020,07,26,14,49,23.80
2020,07,26,14,50,23.80
2020,07,26,14,51,23.80
2020,07,26,14,52,23.80
2020,07,26,14,53,23.90
2020,07,26,14,54,23.90
2020,07,26,14,55,23.90
2020,07,26,14,56,23.90
2020,07,26,14,57,23.90
2020,07,26,14,58,23.90
2020,07,26,14,59,23.90
2020,07,26,15,00,23.90
2020,07,26,15,01,23.90
2020,07,26,15,02,23.90
2020,07,26,15,03,23.90
2020,07,26,15,04,23.90
2020,07,26,15,05,23.70
2020,07,26,15,06,23.50
2020,07,26,15,07,23.40
2020,07,26,15,08,23.30
2020,07,26,15,09,23.20
2020,07,26,15,10,23.20
2020,07,26,15,11,23.20
2020,07,26,15,12,23.40
2020,07,26,15,13,23.40
2020,07,26,15,14,23.60
2020,07,26,15,15,23.70
2020,07,26,15,16,23.80
2020,07,26,15,17,23.80
2020,07,26,15,18,23.80
2020,07,26,15,19,23.80
2020,07,26,15,20,23.90
2020,07,26,15,21,23.90
2020,07,26,15,22,23.90
2020,07,26,15,23,23.90
2020,07,26,15,24,23.90
2020,07,26,15,25,23.90
2020,07,26,15,26,23.90
2020,07,26,15,27,24.10
2020,07,26,15,28,24.10
2020,07,26,15,29,24.20
2020,07,26,15,30,24.20
2020,07,26,15,31,24.10
2020,07,26,15,32,24.10
2020,07,26,15,33,24.10
2020,07,26,15,34,24.30
2020,07,26,15,35,24.30
2020,07,26,15,36,24.30
2020,07,26,15,37,24.40
2020,07,26,15,38,24.40
2020,07,26,15,39,24.40
2020,07,26,15,40,24.50
2020,07,26,15,41,24.60
2020,07,26,15,42,24.60
2020,07,26,15,43,24.70
2020,07,26,15,44,24.70
2020,07,26,15,45,24.70
2020,07,26,15,46,24.70
2020,07,26,15,47,24.70
2020,07,26,15,48,24.80
2020,07,26,15,49,24.80
2020,07,26,15,50,24.80
2020,07,26,15,51,24.80
2020,07,26,15,52,24.80
2020,07,26,15,53,24.80
2020,07,26,15,54,24.70
2020,07,26,15,55,24.70
2020,07,26,15,56,24.60
2020,07,26,15,57,24.60
2020,07,26,15,58,24.60
2020,07,26,15,59,24.60
2020,07,26,16,00,24.70
2020,07,26,16,01,24.70
2020,07,26,16,02,24.70
2020,07,26,16,03,24.80
2020,07,26,16,04,24.90
2020,07,26,16,05,24.90
2020,07,26,16,06,24.90
2020,07,26,16,07,24.90
2020,07,26,16,08,24.90
2020,07,26,16,09,25.00
2020,07,26,16,10,24.90
2020,07,26,16,11,24.90
2020,07,26,16,12,25.00
2020,07,26,16,13,25.00
2020,07,26,16,14,25.00
2020,07,26,16,15,24.90
2020,07,26,16,16,24.90
2020,07,26,16,17,24.80
2020,07,26,16,18,24.80
2020,07,26,16,19,24.80
2020,07,26,16,20,24.90
2020,07,26,16,21,24.90
2020,07,26,16,22,25.00
2020,07,26,16,23,25.10
2020,07,26,16,24,25.10
2020,07,26,16,25,25.10
2020,07,26,16,26,25.10
2020,07,26,16,27,25.10
2020,07,26,16,28,25.10
2020,07,26,16,29,25.20
2020,07,26,16,30,25.10
2020,07,26,16,31,25.10
2020,07,26,16,32,25.10
2020,07,26,16,33,25.10
2020,07,26,16,34,25.10
2020,07,26,16,35,25.00
2020,07,26,16,36,25.00
2020,07,26,16,37,25.00
2020,07,26,16,38,25.10
2020,07,26,16,39,25.10
2020,07,26,16,40,25.00
2020,07,26,16,41,25.00
2020,07,26,16,42,25.10
2020,07,26,16,43,25.10
2020,07,26,16,44,25.20
2020,07,26,16,45,25.20
2020,07,26,16,46,25.20
2020,07,26,16,47,25.30
2020,07,26,16,48,25.30
2020,07,26,16,49,25.30
2020,07,26,16,50,25.30
2020,07,26,16,51,25.30
2020,07,26,16,52,25.30
2020,07,26,16,53,25.40
2020,07,26,16,54,25.40
2020,07,26,16,55,25.40
2020,07,26,16,56,25.60
2020,07,26,16,57,25.60
2020,07,26,16,58,25.70
2020,07,26,16,59,25.70
2020,07,26,17,00,25.80
2020,07,26,17,01,25.80
2020,07,26,17,02,25.70
2020,07,26,17,03,25.70
2020,07,26,17,04,25.80
2020,07,26,17,05,25.80
2020,07,26,17,06,25.80
2020,07,26,17,07,25.80
2020,07,26,17,08,25.80
2020,07,26,17,09,25.90
2020,07,26,17,10,25.90
2020,07,26,17,11,25.90
2020,07,26,17,12,25.90
2020,07,26,17,13,26.10
2020,07,26,17,14,26.10
2020,07,26,17,15,26.10
2020,07,26,17,16,26.10
2020,07,26,17,17,26.20
2020,07,26,17,18,26.20
2020,07,26,17,19,26.20